This demonstration page uses our WeatherBlox Daily Observations layout. Learn more.

Left ArrowRight Arrow

Hourly Observations for August 29, 2017

Temp ( °F °C ) Dew Point ( °F °C ) Humidity (%) Winds ( mph kmh ) Pressure ( in mb ) Visibility ( mi km ) Precip ( " mm )
12:52 am 00:52 Cloudy 66 18.9 64 17.8 93 93 NNW 3 6 30.00 1016 10 16 0.00 0.00
1:52 am 01:52 Partly Cloudy 66 18.9 63 17.2 90 90 N 8 13 29.99 1016 10 16 0.00 0.00
2:52 am 02:52 Clear 63 17.2 61 16.1 93 93 N 5 7 29.98 1015 10 16 0.00 0.00
3:52 am 03:52 Clear 62 16.7 61 16.1 96 96 N 6 9 29.98 1015 10 16 0.00 0.00
4:52 am 04:52 Clear 63 17.2 61 16.1 93 93 Calm 29.99 1016 10 16 0.00 0.00
5:52 am 05:52 Clear 61 16.1 59 15 93 93 NNE 3 6 30.00 1016 10 16 0.00 0.00
6:52 am 06:52 Sunny with Mist and Fog 58 14.4 58 14.4 100 100 NNW 6 9 30.02 1017 6 10 0.00 0.00
7:52 am 07:52 Sunny 63 17.2 62 16.7 97 97 N 8 13 30.04 1017 10 16 0.00 0.00
8:52 am 08:52 Sunny 67 19.4 63 17.2 87 87 NNE 8 13 30.03 1017 10 16 0.00 0.00
9:52 am 09:52 Sunny 71 21.7 64 17.8 79 79 NNE 10 17 30.04 1017 10 16 0.00 0.00
10:52 am 10:52 Partly Cloudy 74 23.3 62 16.7 67 67 N 10 17 30.04 1017 10 16 0.00 0.00
11:52 am 11:52 Partly Cloudy 76 24.4 62 16.7 62 62 NNE 8 13 30.05 1018 10 16 0.00 0.00
12:52 pm 12:52 Partly Cloudy 77 25 61 16.1 58 58 undefined N/A 30.04 1017 10 16 0.00 0.00
1:52 pm 13:52 Mostly Sunny 78 25.6 60 15.6 54 54 NNW 5 7 30.03 1017 10 16 0.00 0.00
2:52 pm 14:52 Sunny 79 26.1 61 16.1 54 54 NNW 9 15 30.01 1016 10 16 0.00 0.00
3:52 pm 15:52 Mostly Sunny 78 25.6 61 16.1 56 56 NNW 10 17 30.00 1016 10 16 0.00 0.00
4:52 pm 16:52 Sunny 78 25.6 61 16.1 56 56 N 6 9 29.99 1016 10 16 0.00 0.00
5:52 pm 17:52 Sunny 77 25 61 16.1 58 58 NNW 9 15 29.99 1016 10 16 0.00 0.00
6:52 pm 18:52 Sunny 74 23.3 61 16.1 64 64 NNW 9 15 30.00 1016 10 16 0.00 0.00
7:52 pm 19:52 Clear 69 20.6 61 16.1 76 76 N 7 11 30.00 1016 10 16 0.00 0.00
8:52 pm 20:52 Clear 68 20 62 16.7 81 81 N 6 9 30.00 1016 10 16 0.00 0.00
9:52 pm 21:52 Clear 66 18.9 62 16.7 87 87 N 5 7 30.01 1016 10 16 0.00 0.00
10:52 pm 22:52 Mostly Cloudy 65 18.3 62 16.7 90 90 N 5 7 30.01 1016 10 16 0.00 0.00
11:52 pm 23:52 Mostly Cloudy 66 18.9 62 16.7 87 87 Calm 30.01 1016 10 16 0.00 0.00

Powered by AerisWeather